Showing default

PODSAT, 43229

Orbit data source: Space-Track

PODSAT, 43229 is a payload satellite owned by DARPA (US) in HEO that was launched on Tue, 06 Mar 2018 UTC via an FALCON 9 launch vehicle from the Air Force Eastern Test Range (AFETR). Payloads include a variety of satellites, spacecraft, and rockets equipped with specific instruments for various scientific and technological missions. These include communications satellites like Starlink; space stations such as the ISS; scientific satellites like the Hubble; Earth observation satellites from companies like Planet Labs, Umbra, and HawkEye 360; GPS; miniature CubeSats for education and research; and military/defense satellites.

Loading next visibility...
PODSAT details
Identifier
43229, 2018-023B
Orbit
HEO
Last TLE update1 day ago
Origin
Flag of USDARPA (US)
ManufacturerNovaWurks
MissionOperational Defense Technology
Bus & MotorSIMPL, Unknown motor
Mass~90 kg wet, ~90 kg dry
Launch date (UTC)
2018-03-06 (7 years ago)
Launch vehicle
FALCON 9
Launch site
Air Force Eastern Test Range (AFETR)
Object type
Payload
Rocket body
Debris
Shape & HBRBox, 0.3 m
Radar Cross Section0.135 m², Medium (>0.1 m² and < 1m²)

Expand to show TLE details & history

TLE from 1 day ago
0 PODSAT
1 43229U 18023B   24336.03530838  .00088007 -64346-6  76387-3 0  9999
2 43229  26.8627 226.1916 3990740 299.9006  26.3944  7.59631671147181
Epoch: 2024-12-01T00:50Z
Definitive object data (Epoch: 2024-12-01T00:50:50.644Z)
Latitude0.00002°
Longitude143.10132°
Altitude1,288.507 km
Speed8.218 km/s
True Right ascension15h 04m 45s
True Declination0° 00' 00"
Sunlit
Object was in daylight at TLE epoch
Visualization TLE readout
Latitude-26.69479°
Longitude41.17524°
Altitude734.38 km
Speed8.699 km/s
Apparent Right ascension06h 16m 32s
Apparent Declination-76° 10' 55"
Sunlit
Object is in daylight
Visualization observer readout
Local Sidereal Time08:59:10
Azimuth190.244° SSW
Elevation-28.955°
Doppler factor1
Orbital elements
Apogee altitude8,920.456 km
Perigee altitude192.868 km
Semi-major axis10,934.799 km
Eccentricity0.399074
Inclination26.8627°
RAAN226.1916°
Arg. of periapsis299.9006°
True anomaly60.14818°
Mean anomaly26.3944°
Eccentric anomaly41.56471°
Mean motion1.89813 °/min
BSTAR0.00076387
Orbital period189.66 mins
Loading maneuver chart data...
Loading historical data...
Loading historical data...
Loading historical data...
Loading historical data...
Loading historical data...
Loading historical data...
Loading historical data...
Other satellites on launch #23 in the year 2018 (2018-03-06 UTC)

PODSAT Visibility forecast

Observer location: undefined°, undefined

Span
Click to sort rows by Start time (UTC) header in descending order
Start Az.
Max El. time (UTC)
Max El. Az.
Max El.
End time (UTC)
End Az.
33 mins2024-12-02 17:59:28.735Z170.421° S2024-12-02 18:09:28.735Z124.889° SE21.238°2024-12-02 18:32:28.735Z86.01° E
84 mins2024-12-02 21:15:28.735Z233.797° WSW2024-12-02 21:36:28.735Z159.182° S41.09°2024-12-02 22:39:28.735Z96.995° ESE
102 mins2024-12-03 00:39:28.735Z265.613° W2024-12-03 01:24:28.735Z198.873° SSW41.284°2024-12-03 02:21:28.735Z131.107° SE
81 mins2024-12-03 04:21:28.735Z274.873° WNW2024-12-03 05:09:28.735Z232.346° WSW26.64°2024-12-03 05:42:28.735Z180.607° SSW
|